Location: Newark
(51.0000°N, 11.4100°E)
Time: 12:55:00
(UTC+00:00)

S-56A Canister/Altair - All Passes

Search period start: 20 November 2019 00:00
Search period end: 30 November 2019 00:00
Orbit: 634 x 2498 km, 38.9° (Epoch: 19 November)

Date Brightness Start Highest point End Pass type
(mag) Time Alt. Az. Time Alt. Az. Time Alt. Az.
20 Nov - 14:54:51 10° SSW 15:02:05 21° SSE 15:07:44 10° ESE daylight
20 Nov - 16:57:53 10° SW 17:05:39 30° S 17:11:15 10° ESE visible
20 Nov - 19:02:50 10° WSW 19:08:45 26° SSW 19:13:15 10° SE visible
21 Nov - 14:21:47 10° SSW 14:29:14 20° SSE 14:35:08 10° ESE daylight
21 Nov - 16:24:31 10° SW 16:32:55 31° S 16:38:55 10° ESE visible
21 Nov - 18:29:29 10° WSW 18:36:11 29° SSW 18:41:06 10° SE visible
21 Nov - 20:36:01 10° WSW 20:38:32 13° SW 20:40:48 10° S visible
22 Nov - 13:48:45 10° S 13:56:20 20° SSE 14:02:27 10° ESE daylight
22 Nov - 15:51:08 10° SW 16:00:07 32° S 16:06:33 10° ESE visible
22 Nov - 17:56:05 10° WSW 18:03:34 31° S 18:08:55 10° SE visible
22 Nov - 20:02:17 10° WSW 20:06:06 16° SSW 20:09:19 10° S visible
23 Nov - 13:15:48 10° S 13:23:25 19° SSE 13:29:40 10° ESE daylight
23 Nov - 15:17:44 10° SW 15:27:17 32° SSE 15:34:08 10° ESE daylight
23 Nov - 17:22:39 10° WSW 17:30:53 34° S 17:36:42 10° SE visible
23 Nov - 19:28:41 10° WSW 19:33:36 19° SSW 19:37:33 10° SSE visible
24 Nov - 12:42:56 10° S 12:50:27 18° SSE 12:56:45 10° ESE daylight
24 Nov - 14:44:20 10° SW 14:54:23 32° SSE 15:01:40 10° ESE daylight
24 Nov - 16:49:08 10° WSW 16:58:09 36° S 17:04:27 10° ESE visible
24 Nov - 18:55:08 10° WSW 19:01:05 22° SSW 19:05:40 10° SSE visible
25 Nov - 12:10:12 10° S 12:17:28 17° SE 12:23:42 10° ESE daylight
25 Nov - 14:10:57 10° SW 14:21:25 32° SSE 14:29:09 10° ESE daylight
25 Nov - 16:15:36 10° WSW 16:25:22 38° S 16:32:08 10° ESE visible
25 Nov - 18:21:34 10° WSW 18:28:31 26° SSW 18:33:40 10° SSE visible
26 Nov - 11:37:39 10° S 11:44:27 15° SE 11:50:28 10° ESE daylight
26 Nov - 13:37:36 10° SW 13:48:24 31° SSE 13:56:33 10° ESE daylight
26 Nov - 15:42:02 10° WSW 15:52:30 39° S 15:59:47 10° ESE visible
26 Nov - 17:47:59 10° WSW 17:55:53 29° SSW 18:01:36 10° SE visible
26 Nov - 19:57:32 10° SW 19:57:59 10° SW 19:58:25 10° SW visible
27 Nov - 11:05:21 10° SSE 11:11:26 14° SE 11:16:58 10° ESE daylight
27 Nov - 13:04:17 10° SSW 13:15:21 31° SSE 13:23:53 10° ESE daylight
27 Nov - 15:08:28 10° WSW 15:19:34 40° S 15:27:22 10° ESE daylight
27 Nov - 17:14:22 10° WSW 17:23:12 33° SSW 17:29:28 10° SE visible
27 Nov - 19:22:03 10° WSW 19:25:30 13° SW 19:28:31 10° SSW visible
28 Nov - 10:33:24 10° SSE 10:38:25 13° SE 10:43:06 10° ESE daylight
28 Nov - 12:31:03 10° SSW 12:42:15 30° SSE 12:51:07 10° E daylight
28 Nov - 14:34:53 10° WSW 14:46:35 41° S 14:54:54 10° ESE daylight
28 Nov - 16:40:43 10° WSW 16:50:26 36° SSW 16:57:14 10° SE visible
28 Nov - 18:47:55 10° WSW 18:53:00 17° SW 18:57:10 10° S visible
29 Nov - 10:02:13 10° SE 10:05:24 11° SE 10:08:28 10° ESE daylight
29 Nov - 11:57:54 10° SSW 12:09:07 28° SSE 12:18:17 10° E daylight
29 Nov - 14:01:19 10° SW 14:13:31 41° S 14:22:23 10° ESE daylight
29 Nov - 16:07:03 10° WSW 16:17:36 39° SSW 16:24:58 10° SE visible
29 Nov - 18:13:59 10° W 18:20:27 20° SW 18:25:29 10° S visible
